Location: *
(46.1866°S, 178.5290°W)
Time: 20:01:10
(UTC+00:00)

Cosmos 1867 - Pass Details

Date: 19 May 2021
Orbit: 773 x 802 km, 65.0° (Epoch: 13 June)

Event Time Altitude Azimuth Distance (km) Brightness Sun altitude
Rises 05:12:56 0° 214° (SW) 3,289 7.0 -7.9°
Reaches altitude 10° 05:15:31 10° 206° (SSW) 2,356 6.1 -8.4°
Maximum altitude 05:20:37 41° 136° (SE) 1,130 4.0 -9.2°
Drops below altitude 10° 05:25:42 10° 65° (ENE) 2,340 5.6 -10.0°
Sets 05:28:14 0° 58° (ENE) 3,264 6.4 -10.4°
